locationName,lineName,date,time,countIn,countOut
�����w�O,��������,2022/9/1,0:00,1,6
�����w�O,��������,2022/9/1,1:00,2,2
�����w�O,��������,2022/9/1,2:00,1,3
�����w�O,��������,2022/9/1,3:00,3,5
�����w�O,��������,2022/9/1,4:00,2,3
�����w�O,��������,2022/9/1,5:00,10,11
�����w�O,��������,2022/9/1,6:00,83,42
�����w�O,��������,2022/9/1,7:00,164,160
�����w�O,��������,2022/9/1,8:00,98,168
�����w�O,��������,2022/9/1,9:00,92,125
�����w�O,��������,2022/9/1,10:00,138,160
�����w�O,��������,2022/9/1,11:00,175,180
�����w�O,��������,2022/9/1,12:00,136,152
�����w�O,��������,2022/9/1,13:00,121,138
�����w�O,��������,2022/9/1,14:00,145,164
�����w�O,��������,2022/9/1,15:00,89,132
�����w�O,��������,2022/9/1,16:00,197,178
�����w�O,��������,2022/9/1,17:00,265,220
�����w�O,��������,2022/9/1,18:00,257,194
�����w�O,��������,2022/9/1,19:00,129,137
�����w�O,��������,2022/9/1,20:00,58,69
�����w�O,��������,2022/9/1,21:00,49,76
�����w�O,��������,2022/9/1,22:00,27,37
�����w�O,��������,2022/9/1,23:00,12,9
�����w�O,��������,2022/9/2,0:00,4,6
�����w�O,��������,2022/9/2,1:00,1,0
�����w�O,��������,2022/9/2,2:00,0,2
�����w�O,��������,2022/9/2,3:00,5,3
�����w�O,��������,2022/9/2,4:00,5,3
�����w�O,��������,2022/9/2,5:00,16,9
�����w�O,��������,2022/9/2,6:00,100,63
�����w�O,��������,2022/9/2,7:00,143,150
�����w�O,��������,2022/9/2,8:00,146,202
�����w�O,��������,2022/9/2,9:00,114,118
�����w�O,��������,2022/9/2,10:00,183,164
�����w�O,��������,2022/9/2,11:00,144,189
�����w�O,��������,2022/9/2,12:00,190,212
�����w�O,��������,2022/9/2,13:00,197,188
�����w�O,��������,2022/9/2,14:00,190,205
�����w�O,��������,2022/9/2,15:00,180,215
�����w�O,��������,2022/9/2,16:00,424,320
�����w�O,��������,2022/9/2,17:00,267,237
�����w�O,��������,2022/9/2,18:00,258,243
�����w�O,��������,2022/9/2,19:00,185,191
�����w�O,��������,2022/9/2,20:00,89,111
�����w�O,��������,2022/9/2,21:00,77,69
�����w�O,��������,2022/9/2,22:00,31,54
�����w�O,��������,2022/9/2,23:00,23,25
�����w�O,��������,2022/9/3,0:00,6,22
�����w�O,��������,2022/9/3,1:00,4,5
�����w�O,��������,2022/9/3,2:00,0,4
�����w�O,��������,2022/9/3,3:00,3,3
�����w�O,��������,2022/9/3,4:00,8,6
�����w�O,��������,2022/9/3,5:00,15,10
�����w�O,��������,2022/9/3,6:00,50,24
�����w�O,��������,2022/9/3,7:00,103,80
�����w�O,��������,2022/9/3,8:00,151,159
�����w�O,��������,2022/9/3,9:00,182,196
�����w�O,��������,2022/9/3,10:00,227,267
�����w�O,��������,2022/9/3,11:00,220,238
�����w�O,��������,2022/9/3,12:00,292,283
�����w�O,��������,2022/9/3,13:00,308,293
�����w�O,��������,2022/9/3,14:00,323,349
�����w�O,��������,2022/9/3,15:00,250,287
�����w�O,��������,2022/9/3,16:00,296,298
�����w�O,��������,2022/9/3,17:00,258,224
�����w�O,��������,2022/9/3,18:00,264,234
�����w�O,��������,2022/9/3,19:00,207,187
�����w�O,��������,2022/9/3,20:00,94,121
�����w�O,��������,2022/9/3,21:00,80,111
�����w�O,��������,2022/9/3,22:00,50,82
�����w�O,��������,2022/9/3,23:00,22,37
�����w�O,��������,2022/9/4,0:00,2,20
�����w�O,��������,2022/9/4,1:00,5,5
�����w�O,��������,2022/9/4,2:00,2,3
�����w�O,��������,2022/9/4,3:00,2,7
�����w�O,��������,2022/9/4,4:00,1,3
�����w�O,��������,2022/9/4,5:00,11,9
�����w�O,��������,2022/9/4,6:00,52,35
�����w�O,��������,2022/9/4,7:00,97,64
�����w�O,��������,2022/9/4,8:00,140,97
�����w�O,��������,2022/9/4,9:00,160,193
�����w�O,��������,2022/9/4,10:00,290,352
�����w�O,��������,2022/9/4,11:00,240,222
�����w�O,��������,2022/9/4,12:00,275,306
�����w�O,��������,2022/9/4,13:00,240,313
�����w�O,��������,2022/9/4,14:00,252,287
�����w�O,��������,2022/9/4,15:00,240,257
�����w�O,��������,2022/9/4,16:00,287,252
�����w�O,��������,2022/9/4,17:00,333,266
�����w�O,��������,2022/9/4,18:00,225,221
�����w�O,��������,2022/9/4,19:00,176,179
�����w�O,��������,2022/9/4,20:00,69,100
�����w�O,��������,2022/9/4,21:00,76,78
�����w�O,��������,2022/9/4,22:00,49,43
�����w�O,��������,2022/9/4,23:00,6,2
�����w�O,��������,2022/9/5,0:00,6,15
�����w�O,��������,2022/9/5,1:00,2,3
�����w�O,��������,2022/9/5,2:00,1,1
�����w�O,��������,2022/9/5,3:00,3,4
�����w�O,��������,2022/9/5,4:00,2,3
�����w�O,��������,2022/9/5,5:00,15,13
�����w�O,��������,2022/9/5,6:00,82,52
�����w�O,��������,2022/9/5,7:00,155,159
�����w�O,��������,2022/9/5,8:00,144,172
�����w�O,��������,2022/9/5,9:00,157,236
�����w�O,��������,2022/9/5,10:00,200,232
�����w�O,��������,2022/9/5,11:00,189,234
�����w�O,��������,2022/9/5,12:00,255,268
�����w�O,��������,2022/9/5,13:00,235,324
�����w�O,��������,2022/9/5,14:00,227,374
�����w�O,��������,2022/9/5,15:00,239,245
�����w�O,��������,2022/9/5,16:00,280,254
�����w�O,��������,2022/9/5,17:00,266,234
�����w�O,��������,2022/9/5,18:00,252,260
�����w�O,��������,2022/9/5,19:00,153,183
�����w�O,��������,2022/9/5,20:00,62,61
�����w�O,��������,2022/9/5,21:00,45,71
�����w�O,��������,2022/9/5,22:00,23,40
�����w�O,��������,2022/9/5,23:00,8,15
�����w�O,��������,2022/9/6,0:00,2,6
�����w�O,��������,2022/9/6,1:00,2,3
�����w�O,��������,2022/9/6,2:00,1,1
�����w�O,��������,2022/9/6,3:00,3,4
�����w�O,��������,2022/9/6,4:00,2,0
�����w�O,��������,2022/9/6,5:00,6,5
�����w�O,��������,2022/9/6,6:00,69,45
�����w�O,��������,2022/9/6,7:00,171,173
�����w�O,��������,2022/9/6,8:00,111,177
�����w�O,��������,2022/9/6,9:00,104,97
�����w�O,��������,2022/9/6,10:00,123,112
�����w�O,��������,2022/9/6,11:00,156,150
�����w�O,��������,2022/9/6,12:00,187,180
�����w�O,��������,2022/9/6,13:00,147,180
�����w�O,��������,2022/9/6,14:00,156,172
�����w�O,��������,2022/9/6,15:00,190,221
�����w�O,��������,2022/9/6,16:00,228,186
�����w�O,��������,2022/9/6,17:00,242,209
�����w�O,��������,2022/9/6,18:00,235,199
�����w�O,��������,2022/9/6,19:00,139,155
�����w�O,��������,2022/9/6,20:00,97,82
�����w�O,��������,2022/9/6,21:00,64,61
�����w�O,��������,2022/9/6,22:00,28,38
�����w�O,��������,2022/9/6,23:00,14,17
�����w�O,��������,2022/9/7,0:00,5,7
�����w�O,��������,2022/9/7,1:00,1,4
�����w�O,��������,2022/9/7,2:00,1,1
�����w�O,��������,2022/9/7,3:00,4,5
�����w�O,��������,2022/9/7,4:00,2,4
�����w�O,��������,2022/9/7,5:00,9,10
�����w�O,��������,2022/9/7,6:00,69,43
�����w�O,��������,2022/9/7,7:00,198,203
�����w�O,��������,2022/9/7,8:00,229,317
�����w�O,��������,2022/9/7,9:00,181,254
�����w�O,��������,2022/9/7,10:00,147,204
�����w�O,��������,2022/9/7,11:00,200,194
�����w�O,��������,2022/9/7,12:00,262,285
�����w�O,��������,2022/9/7,13:00,172,205
�����w�O,��������,2022/9/7,14:00,184,204
�����w�O,��������,2022/9/7,15:00,186,209
�����w�O,��������,2022/9/7,16:00,368,366
�����w�O,��������,2022/9/7,17:00,332,298
�����w�O,��������,2022/9/7,18:00,263,208
�����w�O,��������,2022/9/7,19:00,212,165
�����w�O,��������,2022/9/7,20:00,104,117
�����w�O,��������,2022/9/7,21:00,77,115
�����w�O,��������,2022/9/7,22:00,28,37
�����w�O,��������,2022/9/7,23:00,12,12
�����w�O,��������,2022/9/8,0:00,3,10
�����w�O,��������,2022/9/8,1:00,0,0
�����w�O,��������,2022/9/8,2:00,1,1
�����w�O,��������,2022/9/8,3:00,5,3
�����w�O,��������,2022/9/8,4:00,3,5
�����w�O,��������,2022/9/8,5:00,17,8
�����w�O,��������,2022/9/8,6:00,69,53
�����w�O,��������,2022/9/8,7:00,176,171
�����w�O,��������,2022/9/8,8:00,107,193
�����w�O,��������,2022/9/8,9:00,151,159
�����w�O,��������,2022/9/8,10:00,191,222
�����w�O,��������,2022/9/8,11:00,218,217
�����w�O,��������,2022/9/8,12:00,193,223
�����w�O,��������,2022/9/8,13:00,156,191
�����w�O,��������,2022/9/8,14:00,209,233
�����w�O,��������,2022/9/8,15:00,211,215
�����w�O,��������,2022/9/8,16:00,449,367
�����w�O,��������,2022/9/8,17:00,304,271
�����w�O,��������,2022/9/8,18:00,346,282
�����w�O,��������,2022/9/8,19:00,224,196
�����w�O,��������,2022/9/8,20:00,89,107
�����w�O,��������,2022/9/8,21:00,129,127
�����w�O,��������,2022/9/8,22:00,51,64
�����w�O,��������,2022/9/8,23:00,6,12
�����w�O,��������,2022/9/9,0:00,7,10
�����w�O,��������,2022/9/9,1:00,1,5
�����w�O,��������,2022/9/9,2:00,0,1
�����w�O,��������,2022/9/9,3:00,7,5
�����w�O,��������,2022/9/9,4:00,4,3
�����w�O,��������,2022/9/9,5:00,13,10
�����w�O,��������,2022/9/9,6:00,69,56
�����w�O,��������,2022/9/9,7:00,170,162
�����w�O,��������,2022/9/9,8:00,136,207
�����w�O,��������,2022/9/9,9:00,165,154
�����w�O,��������,2022/9/9,10:00,207,252
�����w�O,��������,2022/9/9,11:00,206,243
�����w�O,��������,2022/9/9,12:00,246,255
�����w�O,��������,2022/9/9,13:00,254,312
�����w�O,��������,2022/9/9,14:00,222,300
�����w�O,��������,2022/9/9,15:00,282,295
�����w�O,��������,2022/9/9,16:00,294,272
�����w�O,��������,2022/9/9,17:00,291,272
�����w�O,��������,2022/9/9,18:00,286,285
�����w�O,��������,2022/9/9,19:00,216,215
�����w�O,��������,2022/9/9,20:00,103,94
�����w�O,��������,2022/9/9,21:00,76,96
�����w�O,��������,2022/9/9,22:00,42,78
�����w�O,��������,2022/9/9,23:00,20,30
�����w�O,��������,2022/9/10,0:00,1,12
�����w�O,��������,2022/9/10,1:00,8,15
�����w�O,��������,2022/9/10,2:00,3,3
�����w�O,��������,2022/9/10,3:00,5,7
�����w�O,��������,2022/9/10,4:00,7,8
�����w�O,��������,2022/9/10,5:00,17,10
�����w�O,��������,2022/9/10,6:00,43,24
�����w�O,��������,2022/9/10,7:00,132,72
�����w�O,��������,2022/9/10,8:00,149,152
�����w�O,��������,2022/9/10,9:00,248,305
�����w�O,��������,2022/9/10,10:00,344,336
�����w�O,��������,2022/9/10,11:00,394,454
�����w�O,��������,2022/9/10,12:00,424,544
�����w�O,��������,2022/9/10,13:00,334,361
�����w�O,��������,2022/9/10,14:00,395,441
�����w�O,��������,2022/9/10,15:00,328,337
�����w�O,��������,2022/9/10,16:00,375,326
�����w�O,��������,2022/9/10,17:00,325,334
�����w�O,��������,2022/9/10,18:00,322,303
�����w�O,��������,2022/9/10,19:00,223,296
�����w�O,��������,2022/9/10,20:00,160,166
�����w�O,��������,2022/9/10,21:00,130,167
�����w�O,��������,2022/9/10,22:00,32,84
�����w�O,��������,2022/9/10,23:00,12,31
�����w�O,��������,2022/9/11,0:00,1,12
�����w�O,��������,2022/9/11,1:00,0,4
�����w�O,��������,2022/9/11,2:00,1,4
�����w�O,��������,2022/9/11,3:00,3,4
�����w�O,��������,2022/9/11,4:00,4,5
�����w�O,��������,2022/9/11,5:00,20,11
�����w�O,��������,2022/9/11,6:00,38,32
�����w�O,��������,2022/9/11,7:00,73,60
�����w�O,��������,2022/9/11,8:00,130,148
�����w�O,��������,2022/9/11,9:00,263,267
�����w�O,��������,2022/9/11,10:00,280,287
�����w�O,��������,2022/9/11,11:00,441,393
�����w�O,��������,2022/9/11,12:00,284,283
�����w�O,��������,2022/9/11,13:00,291,266
�����w�O,��������,2022/9/11,14:00,387,465
�����w�O,��������,2022/9/11,15:00,400,533
�����w�O,��������,2022/9/11,16:00,292,273
�����w�O,��������,2022/9/11,17:00,269,289
�����w�O,��������,2022/9/11,18:00,295,310
�����w�O,��������,2022/9/11,19:00,149,140
�����w�O,��������,2022/9/11,20:00,154,161
�����w�O,��������,2022/9/11,21:00,58,70
�����w�O,��������,2022/9/11,22:00,42,57
�����w�O,��������,2022/9/11,23:00,9,24
�����w�O,��������,2022/9/12,0:00,2,13
�����w�O,��������,2022/9/12,1:00,0,0
�����w�O,��������,2022/9/12,2:00,0,0
�����w�O,��������,2022/9/12,3:00,0,0
�����w�O,��������,2022/9/12,4:00,0,0
�����w�O,��������,2022/9/12,5:00,0,0
�����w�O,��������,2022/9/12,6:00,0,0
�����w�O,��������,2022/9/12,7:00,0,0
�����w�O,��������,2022/9/12,8:00,0,0
�����w�O,��������,2022/9/12,9:00,0,0
�����w�O,��������,2022/9/12,10:00,0,0
�����w�O,��������,2022/9/12,11:00,0,0
�����w�O,��������,2022/9/12,12:00,277,198
�����w�O,��������,2022/9/12,13:00,328,218
�����w�O,��������,2022/9/12,14:00,259,203
�����w�O,��������,2022/9/12,15:00,248,245
�����w�O,��������,2022/9/12,16:00,304,234
�����w�O,��������,2022/9/12,17:00,261,247
�����w�O,��������,2022/9/12,18:00,471,399
�����w�O,��������,2022/9/12,19:00,236,260
�����w�O,��������,2022/9/12,20:00,224,194
�����w�O,��������,2022/9/12,21:00,62,75
�����w�O,��������,2022/9/12,22:00,37,59
�����w�O,��������,2022/9/12,23:00,18,23
�����w�O,��������,2022/9/13,0:00,0,9
�����w�O,��������,2022/9/13,1:00,4,4
�����w�O,��������,2022/9/13,2:00,1,1
�����w�O,��������,2022/9/13,3:00,3,5
�����w�O,��������,2022/9/13,4:00,2,3
�����w�O,��������,2022/9/13,5:00,9,10
�����w�O,��������,2022/9/13,6:00,69,44
�����w�O,��������,2022/9/13,7:00,152,158
�����w�O,��������,2022/9/13,8:00,134,214
�����w�O,��������,2022/9/13,9:00,160,133
�����w�O,��������,2022/9/13,10:00,186,192
�����w�O,��������,2022/9/13,11:00,304,275
�����w�O,��������,2022/9/13,12:00,192,185
�����w�O,��������,2022/9/13,13:00,164,168
�����w�O,��������,2022/9/13,14:00,171,197
�����w�O,��������,2022/9/13,15:00,162,189
�����w�O,��������,2022/9/13,16:00,232,254
�����w�O,��������,2022/9/13,17:00,276,249
�����w�O,��������,2022/9/13,18:00,244,246
�����w�O,��������,2022/9/13,19:00,182,201
�����w�O,��������,2022/9/13,20:00,108,121
�����w�O,��������,2022/9/13,21:00,58,87
�����w�O,��������,2022/9/13,22:00,43,48
�����w�O,��������,2022/9/13,23:00,15,19
�����w�O,��������,2022/9/14,0:00,2,9
�����w�O,��������,2022/9/14,1:00,4,6
�����w�O,��������,2022/9/14,2:00,1,0
�����w�O,��������,2022/9/14,3:00,5,5
�����w�O,��������,2022/9/14,4:00,2,5
�����w�O,��������,2022/9/14,5:00,15,10
�����w�O,��������,2022/9/14,6:00,63,42
�����w�O,��������,2022/9/14,7:00,173,143
�����w�O,��������,2022/9/14,8:00,129,178
�����w�O,��������,2022/9/14,9:00,145,186
�����w�O,��������,2022/9/14,10:00,191,220
�����w�O,��������,2022/9/14,11:00,198,185
�����w�O,��������,2022/9/14,12:00,158,188
�����w�O,��������,2022/9/14,13:00,141,192
�����w�O,��������,2022/9/14,14:00,167,197
�����w�O,��������,2022/9/14,15:00,256,251
�����w�O,��������,2022/9/14,16:00,351,311
�����w�O,��������,2022/9/14,17:00,341,303
�����w�O,��������,2022/9/14,18:00,271,227
�����w�O,��������,2022/9/14,19:00,165,173
�����w�O,��������,2022/9/14,20:00,56,73
�����w�O,��������,2022/9/14,21:00,61,82
�����w�O,��������,2022/9/14,22:00,46,71
�����w�O,��������,2022/9/14,23:00,13,20
�����w�O,��������,2022/9/15,0:00,2,8
�����w�O,��������,2022/9/15,1:00,0,6
�����w�O,��������,2022/9/15,2:00,1,3
�����w�O,��������,2022/9/15,3:00,5,3
�����w�O,��������,2022/9/15,4:00,1,3
�����w�O,��������,2022/9/15,5:00,17,9
�����w�O,��������,2022/9/15,6:00,71,56
�����w�O,��������,2022/9/15,7:00,150,156
�����w�O,��������,2022/9/15,8:00,135,178
�����w�O,��������,2022/9/15,9:00,132,133
�����w�O,��������,2022/9/15,10:00,198,227
�����w�O,��������,2022/9/15,11:00,210,225
�����w�O,��������,2022/9/15,12:00,167,188
�����w�O,��������,2022/9/15,13:00,174,207
�����w�O,��������,2022/9/15,14:00,161,174
�����w�O,��������,2022/9/15,15:00,175,185
�����w�O,��������,2022/9/15,16:00,397,410
�����w�O,��������,2022/9/15,17:00,290,231
�����w�O,��������,2022/9/15,18:00,238,233
�����w�O,��������,2022/9/15,19:00,196,227
�����w�O,��������,2022/9/15,20:00,102,117
�����w�O,��������,2022/9/15,21:00,54,82
�����w�O,��������,2022/9/15,22:00,29,49
�����w�O,��������,2022/9/15,23:00,10,17
�����w�O,��������,2022/9/16,0:00,1,5
�����w�O,��������,2022/9/16,1:00,1,3
�����w�O,��������,2022/9/16,2:00,1,4
�����w�O,��������,2022/9/16,3:00,3,3
�����w�O,��������,2022/9/16,4:00,2,4
�����w�O,��������,2022/9/16,5:00,14,11
�����w�O,��������,2022/9/16,6:00,71,41
�����w�O,��������,2022/9/16,7:00,162,159
�����w�O,��������,2022/9/16,8:00,155,209
�����w�O,��������,2022/9/16,9:00,160,165
�����w�O,��������,2022/9/16,10:00,227,277
�����w�O,��������,2022/9/16,11:00,266,288
�����w�O,��������,2022/9/16,12:00,227,262
�����w�O,��������,2022/9/16,13:00,232,227
�����w�O,��������,2022/9/16,14:00,219,221
�����w�O,��������,2022/9/16,15:00,234,245
�����w�O,��������,2022/9/16,16:00,291,313
�����w�O,��������,2022/9/16,17:00,325,300
�����w�O,��������,2022/9/16,18:00,305,296
�����w�O,��������,2022/9/16,19:00,211,214
�����w�O,��������,2022/9/16,20:00,172,162
�����w�O,��������,2022/9/16,21:00,109,174
�����w�O,��������,2022/9/16,22:00,54,55
�����w�O,��������,2022/9/16,23:00,19,31
�����w�O,��������,2022/9/17,0:00,6,19
�����w�O,��������,2022/9/17,1:00,1,6
�����w�O,��������,2022/9/17,2:00,0,5
�����w�O,��������,2022/9/17,3:00,4,2
�����w�O,��������,2022/9/17,4:00,3,4
�����w�O,��������,2022/9/17,5:00,18,14
�����w�O,��������,2022/9/17,6:00,81,38
�����w�O,��������,2022/9/17,7:00,114,67
�����w�O,��������,2022/9/17,8:00,133,146
�����w�O,��������,2022/9/17,9:00,295,290
�����w�O,��������,2022/9/17,10:00,354,350
�����w�O,��������,2022/9/17,11:00,381,439
�����w�O,��������,2022/9/17,12:00,337,348
�����w�O,��������,2022/9/17,13:00,472,418
�����w�O,��������,2022/9/17,14:00,339,335
�����w�O,��������,2022/9/17,15:00,357,293
�����w�O,��������,2022/9/17,16:00,289,313
�����w�O,��������,2022/9/17,17:00,326,305
�����w�O,��������,2022/9/17,18:00,345,322
�����w�O,��������,2022/9/17,19:00,205,194
�����w�O,��������,2022/9/17,20:00,117,114
�����w�O,��������,2022/9/17,21:00,169,214
�����w�O,��������,2022/9/17,22:00,48,81
�����w�O,��������,2022/9/17,23:00,15,36
�����w�O,��������,2022/9/18,0:00,7,39
�����w�O,��������,2022/9/18,1:00,4,6
�����w�O,��������,2022/9/18,2:00,1,3
�����w�O,��������,2022/9/18,3:00,6,5
�����w�O,��������,2022/9/18,4:00,1,2
�����w�O,��������,2022/9/18,5:00,11,8
�����w�O,��������,2022/9/18,6:00,52,27
�����w�O,��������,2022/9/18,7:00,53,60
�����w�O,��������,2022/9/18,8:00,104,90
�����w�O,��������,2022/9/18,9:00,166,183
�����w�O,��������,2022/9/18,10:00,301,241
�����w�O,��������,2022/9/18,11:00,269,304
�����w�O,��������,2022/9/18,12:00,313,335
�����w�O,��������,2022/9/18,13:00,386,373
�����w�O,��������,2022/9/18,14:00,283,277
�����w�O,��������,2022/9/18,15:00,318,247
�����w�O,��������,2022/9/18,16:00,275,257
�����w�O,��������,2022/9/18,17:00,148,162
�����w�O,��������,2022/9/18,18:00,125,111
�����w�O,��������,2022/9/18,19:00,81,92
�����w�O,��������,2022/9/18,20:00,41,51
�����w�O,��������,2022/9/18,21:00,27,51
�����w�O,��������,2022/9/18,22:00,37,53
�����w�O,��������,2022/9/18,23:00,9,12
�����w�O,��������,2022/9/19,0:00,0,7
�����w�O,��������,2022/9/19,1:00,4,5
�����w�O,��������,2022/9/19,2:00,1,1
�����w�O,��������,2022/9/19,3:00,2,2
�����w�O,��������,2022/9/19,4:00,0,2
�����w�O,��������,2022/9/19,5:00,14,7
�����w�O,��������,2022/9/19,6:00,9,11
�����w�O,��������,2022/9/19,7:00,22,15
�����w�O,��������,2022/9/19,8:00,52,39
�����w�O,��������,2022/9/19,9:00,43,32
�����w�O,��������,2022/9/19,10:00,60,50
�����w�O,��������,2022/9/19,11:00,25,35
�����w�O,��������,2022/9/19,12:00,49,37
�����w�O,��������,2022/9/19,13:00,31,35
�����w�O,��������,2022/9/19,14:00,27,35
�����w�O,��������,2022/9/19,15:00,28,25
�����w�O,��������,2022/9/19,16:00,29,35
�����w�O,��������,2022/9/19,17:00,45,44
�����w�O,��������,2022/9/19,18:00,41,36
�����w�O,��������,2022/9/19,19:00,15,28
�����w�O,��������,2022/9/19,20:00,8,5
�����w�O,��������,2022/9/19,21:00,7,6
�����w�O,��������,2022/9/19,22:00,8,8
�����w�O,��������,2022/9/19,23:00,2,1
�����w�O,��������,2022/9/20,0:00,8,3
�����w�O,��������,2022/9/20,1:00,3,4
�����w�O,��������,2022/9/20,2:00,1,1
�����w�O,��������,2022/9/20,3:00,1,1
�����w�O,��������,2022/9/20,4:00,4,3
�����w�O,��������,2022/9/20,5:00,13,11
�����w�O,��������,2022/9/20,6:00,56,41
�����w�O,��������,2022/9/20,7:00,162,159
�����w�O,��������,2022/9/20,8:00,110,210
�����w�O,��������,2022/9/20,9:00,161,170
�����w�O,��������,2022/9/20,10:00,164,201
�����w�O,��������,2022/9/20,11:00,186,186
�����w�O,��������,2022/9/20,12:00,184,193
�����w�O,��������,2022/9/20,13:00,172,188
�����w�O,��������,2022/9/20,14:00,181,226
�����w�O,��������,2022/9/20,15:00,172,193
�����w�O,��������,2022/9/20,16:00,236,212
�����w�O,��������,2022/9/20,17:00,246,255
�����w�O,��������,2022/9/20,18:00,251,227
�����w�O,��������,2022/9/20,19:00,189,171
�����w�O,��������,2022/9/20,20:00,149,146
�����w�O,��������,2022/9/20,21:00,127,103
�����w�O,��������,2022/9/20,22:00,61,98
�����w�O,��������,2022/9/20,23:00,24,58
�����w�O,��������,2022/9/21,0:00,9,15
�����w�O,��������,2022/9/21,1:00,3,12
�����w�O,��������,2022/9/21,2:00,4,3
�����w�O,��������,2022/9/21,3:00,3,2
�����w�O,��������,2022/9/21,4:00,0,3
�����w�O,��������,2022/9/21,5:00,16,11
�����w�O,��������,2022/9/21,6:00,69,44
�����w�O,��������,2022/9/21,7:00,191,157
�����w�O,��������,2022/9/21,8:00,164,223
�����w�O,��������,2022/9/21,9:00,158,182
�����w�O,��������,2022/9/21,10:00,229,245
�����w�O,��������,2022/9/21,11:00,209,261
�����w�O,��������,2022/9/21,12:00,192,222
�����w�O,��������,2022/9/21,13:00,177,197
�����w�O,��������,2022/9/21,14:00,206,230
�����w�O,��������,2022/9/21,15:00,312,309
�����w�O,��������,2022/9/21,16:00,478,330
�����w�O,��������,2022/9/21,17:00,427,387
�����w�O,��������,2022/9/21,18:00,280,258
�����w�O,��������,2022/9/21,19:00,207,174
�����w�O,��������,2022/9/21,20:00,131,133
�����w�O,��������,2022/9/21,21:00,67,109
�����w�O,��������,2022/9/21,22:00,30,47
�����w�O,��������,2022/9/21,23:00,16,25
�����w�O,��������,2022/9/22,0:00,3,8
�����w�O,��������,2022/9/22,1:00,2,1
�����w�O,��������,2022/9/22,2:00,4,0
�����w�O,��������,2022/9/22,3:00,4,5
�����w�O,��������,2022/9/22,4:00,2,3
�����w�O,��������,2022/9/22,5:00,79,151
�����w�O,��������,2022/9/22,6:00,85,52
�����w�O,��������,2022/9/22,7:00,183,174
�����w�O,��������,2022/9/22,8:00,136,177
�����w�O,��������,2022/9/22,9:00,158,220
�����w�O,��������,2022/9/22,10:00,230,230
�����w�O,��������,2022/9/22,11:00,232,244
�����w�O,��������,2022/9/22,12:00,230,262
�����w�O,��������,2022/9/22,13:00,189,240
�����w�O,��������,2022/9/22,14:00,228,250
�����w�O,��������,2022/9/22,15:00,240,292
�����w�O,��������,2022/9/22,16:00,402,346
�����w�O,��������,2022/9/22,17:00,388,349
�����w�O,��������,2022/9/22,18:00,311,296
�����w�O,��������,2022/9/22,19:00,183,204
�����w�O,��������,2022/9/22,20:00,119,148
�����w�O,��������,2022/9/22,21:00,62,81
�����w�O,��������,2022/9/22,22:00,61,73
�����w�O,��������,2022/9/22,23:00,17,28
�����w�O,��������,2022/9/23,0:00,4,26
�����w�O,��������,2022/9/23,1:00,1,3
�����w�O,��������,2022/9/23,2:00,0,4
�����w�O,��������,2022/9/23,3:00,6,7
�����w�O,��������,2022/9/23,4:00,1,2
�����w�O,��������,2022/9/23,5:00,11,14
�����w�O,��������,2022/9/23,6:00,38,19
�����w�O,��������,2022/9/23,7:00,146,95
�����w�O,��������,2022/9/23,8:00,211,238
�����w�O,��������,2022/9/23,9:00,430,356
�����w�O,��������,2022/9/23,10:00,462,464
�����w�O,��������,2022/9/23,11:00,446,479
�����w�O,��������,2022/9/23,12:00,473,458
�����w�O,��������,2022/9/23,13:00,482,431
�����w�O,��������,2022/9/23,14:00,439,530
�����w�O,��������,2022/9/23,15:00,427,399
�����w�O,��������,2022/9/23,16:00,453,391
�����w�O,��������,2022/9/23,17:00,344,395
�����w�O,��������,2022/9/23,18:00,356,281
�����w�O,��������,2022/9/23,19:00,224,231
�����w�O,��������,2022/9/23,20:00,155,169
�����w�O,��������,2022/9/23,21:00,124,125
�����w�O,��������,2022/9/23,22:00,85,91
�����w�O,��������,2022/9/23,23:00,55,81
�����w�O,��������,2022/9/24,0:00,1,7
�����w�O,��������,2022/9/24,1:00,4,4
�����w�O,��������,2022/9/24,2:00,1,3
�����w�O,��������,2022/9/24,3:00,6,2
�����w�O,��������,2022/9/24,4:00,4,5
�����w�O,��������,2022/9/24,5:00,83,126
�����w�O,��������,2022/9/24,6:00,83,30
�����w�O,��������,2022/9/24,7:00,135,89
�����w�O,��������,2022/9/24,8:00,190,220
�����w�O,��������,2022/9/24,9:00,269,395
�����w�O,��������,2022/9/24,10:00,415,552
�����w�O,��������,2022/9/24,11:00,440,461
�����w�O,��������,2022/9/24,12:00,493,452
�����w�O,��������,2022/9/24,13:00,491,498
�����w�O,��������,2022/9/24,14:00,531,501
�����w�O,��������,2022/9/24,15:00,400,490
�����w�O,��������,2022/9/24,16:00,517,473
�����w�O,��������,2022/9/24,17:00,595,515
�����w�O,��������,2022/9/24,18:00,520,421
�����w�O,��������,2022/9/24,19:00,375,321
�����w�O,��������,2022/9/24,20:00,280,219
�����w�O,��������,2022/9/24,21:00,98,132
�����w�O,��������,2022/9/24,22:00,36,88
�����w�O,��������,2022/9/24,23:00,24,24
�����w�O,��������,2022/9/25,0:00,8,44
�����w�O,��������,2022/9/25,1:00,5,6
�����w�O,��������,2022/9/25,2:00,0,4
�����w�O,��������,2022/9/25,3:00,6,2
�����w�O,��������,2022/9/25,4:00,5,8
�����w�O,��������,2022/9/25,5:00,14,13
�����w�O,��������,2022/9/25,6:00,42,33
�����w�O,��������,2022/9/25,7:00,103,78
�����w�O,��������,2022/9/25,8:00,167,149
�����w�O,��������,2022/9/25,9:00,351,313